User: anonymous   Login
Location: Aufkirchen
(47.9603°N, 11.3653°E)
Time: 18:20:39
(UTC+02:00)
Language:

Tiros 1 - Orbit

View from above orbital plane
View from above orbital plane
View from above satellite
View from above satellite

Ground track
Ground track

The orbit data is extracted from the following two-line orbital elements,

1 00029U 60002B   21135.53967284 -.00000089  00000-0  17675-4 0  9993
2 00029  48.3786 181.3236 0024453 214.5708 145.3615 14.74427679267548
Epoch (UTC): 15 May 2021 12:57:07
Eccentricity: 0.0024453
inclination: 48.3786°
perigee height: 630 km
apogee height: 664 km
right ascension of ascending node: 181.3236°
argument of perigee: 214.5708°
revolutions per day: 14.74427679
mean anomaly at epoch: 145.3615°
orbit number at epoch: 26754

The dashed part of the orbit path shows where the satellite is in the earth's shadow,  

DLR